Flag for Germany Weather past 2 weeks in Erding, Bavaria, Germany

Now
59 °F

Cool.


Feels Like: 58 °F
Forecast: 52 / 61 °F
Wind: 7 mph from Northwest

Location: Erding Airport

Current Time: Aug 31, 2014 at 10:22:09 AM

Latest Report: Aug 31, 2014 at 9:20 AM


Visibility: 4 mi

Pressure: 30.01 "Hg

Humidity: 94%

Dew point: 57 °F

Location of ErdingLocation

Historic Weather in Erding — Graph

°F

Erding temperature yesterday

Maximum temperature yesterday: 72 °F (at 3:20 PM)
Minimum temperature yesterday: 59 °F (at 11:20 PM)
Average temperature yesterday: 65 °F

Past Weeks' High & Low Weather Summary

 TemperatureHumidityPressure
High72 °F (Aug 18, 3:20 PM)100% (Aug 19, 5:20 AM)30.15 "Hg (Aug 19, 5:20 AM)
Low45 °F (Aug 25, 3:20 AM)38% (Aug 21, 5:20 PM)29.74 "Hg (Aug 26, 8:20 AM)
Average60 °F79%30.01 "Hg
* Reported Aug 18 8:20 AM — Aug 31 8:20 AM, Erding, Weather by CustomWeather, © 2014

Note: Actual official high and low records may vary slightly from our data, if they occured in-between our weather recording intervals... More about our weather records

Advertising

Erding weather history for previous 24 hours

 ConditionsComfort  
Time TempWeatherWind HumidityBarometerVisibility
8:20 AM
Aug 31
59 °FCool.5 mph94%30.01 "Hg4 mi
7:20 AM57 °FCool.3 mph94%30.01 "Hg4 mi
6:20 AM55 °FCool.3 mph100%30.01 "Hg4 mi
5:20 AM55 °FCool.2 mph100%30.01 "Hg4 mi
4:20 AM57 °FCool.3 mph94%30.01 "Hg5 mi
3:20 AM57 °FCool.2 mph100%30.04 "Hg4 mi
2:20 AM59 °FCool.1 mph100%30.04 "Hg4 mi
1:20 AM59 °FCool.2 mph100%30.07 "Hg4 mi
12:20 AM59 °FCool.3 mph100%30.07 "Hg4 mi
11:20 PM
Aug 30
59 °FCool.2 mph94%30.07 "Hg4 mi
10:20 PM61 °FCool.2 mph94%30.09 "Hg4 mi
9:20 PM64 °FMild.5 mph83%30.09 "Hg4 mi
8:20 PM64 °FMild.1 mph73%30.07 "HgN/A
7:20 PM70 °FMild.2 mph60%30.07 "HgN/A
6:20 PM72 °FMild.2 mph61%30.07 "HgN/A
5:20 PM72 °FMild.2 mph57%30.07 "HgN/A
4:20 PM72 °FMild.2 mph57%30.07 "Hg6 mi
3:20 PM72 °FMild.3 mph57%30.09 "Hg6 mi
2:20 PM70 °FMild.5 mph64%30.09 "Hg5 mi
1:20 PM70 °FMild.3 mph69%30.12 "Hg4 mi
12:20 PM66 °FMild.6 mph78%30.12 "Hg4 mi
11:20 AM66 °FMild.5 mph83%30.12 "Hg4 mi
10:20 AM64 °FMild.5 mph88%30.12 "Hg4 mi
Weather by CustomWeather, © 2014

See weather overviewHow to use our weather pages